FW5399 Weather Reports


Display with metric or nautical units.
time (UTC)temp
F
wind
direction
speed
MPH
gust
MPH
rain 1hr
in
rain 24hr
in
rain mn
in
humidity
%
barometer
mb
20260508220025 61 171 1.0 4.0 0.00 0.90 0.59 95 1006.4
20260508215522 61 142 1.0 4.0 0.00 0.90 0.59 95 1006.6
20260508215024 61 226 0.0 1.0 0.00 0.90 0.59 96 1006.5
20260508214524 61 156 0.0 1.0 0.00 0.90 0.59 96 1006.5
20260508214022 61 144 0.0 2.0 0.00 0.90 0.59 97 1006.5
20260508213521 61 142 0.0 2.0 0.00 0.90 0.59 97 1006.5
20260508213022 61 155 0.0 2.0 0.00 0.90 0.59 97 1006.5
20260508212523 61 161 0.0 2.0 0.00 0.90 0.59 97 1006.5
20260508212410 60 180 1.0 4.0 0.00 0.90 0.59 97 1006.5
20260508211517 60 187 1.0 4.0 0.00 0.90 0.59 96 1006.7
20260508211423 60 184 1.0 4.0 0.00 0.90 0.59 97 1006.6
20260508210512 61 192 1.0 4.0 0.00 0.90 0.59 98 1006.7
20260508210007 61 130 2.0 4.0 0.00 0.90 0.59 98 1006.7
20260508205507 61 188 1.0 6.0 0.00 0.90 0.59 98 1006.6
20260508205007 61 157 0.0 6.0 0.00 0.90 0.59 98 1006.6
20260508204508 61 194 0.0 1.0 0.01 0.90 0.59 100 1006.6
20260508204005 60 194 0.0 1.0 0.01 0.90 0.59 100 1006.7
20260508203505 60 192 0.0 1.0 0.01 0.90 0.59 100 1006.6
20260508203005 60 189 0.0 0.0 0.01 0.90 0.59 100 1006.7
20260508202503 59 189 0.0 0.0 0.01 0.90 0.59 100 1006.6
20260508202005 59 189 0.0 0.0 0.01 0.90 0.59 100 1006.6
20260508201839 59 189 0.0 0.0 0.01 0.90 0.59 100 1006.7
20260508200959 58 189 0.0 0.0 0.01 0.90 0.59 100 1006.6
20260508200454 58 189 0.0 2.0 0.01 0.90 0.59 100 1006.7
20260508195952 58 189 0.0 2.0 0.01 0.90 0.59 100 1006.6
20260508195452 58 183 0.0 2.0 0.01 0.90 0.59 100 1006.6
20260508195349 57 175 0.0 2.0 0.01 0.90 0.59 100 1006.5
20260508194452 57 213 0.0 0.0 0.00 0.89 0.58 100 1006.6
20260508194343 57 213 0.0 0.0 0.00 0.89 0.58 100 1006.6
20260508193451 56 213 0.0 0.0 0.00 0.89 0.58 100 1006.6
20260508192949 56 213 0.0 1.0 0.00 0.89 0.58 100 1006.4
20260508192447 56 213 0.0 1.0 0.00 0.89 0.58 100 1006.4
20260508191952 56 213 0.0 0.0 0.00 0.89 0.58 100 1006.4
20260508191449 56 212 0.0 0.0 0.00 0.89 0.58 100 1006.6
20260508190947 56 212 0.0 0.0 0.00 0.89 0.58 100 1006.4
20260508190454 56 212 0.0 0.0 0.00 0.89 0.58 100 1006.4
20260508185943 56 212 0.0 0.0 0.00 0.89 0.58 100 1006.3
20260508185612 57 212 0.0 0.0 0.00 0.89 0.58 100 1006.2
20260508184424 57 212 0.0 0.0 0.00 0.89 0.58 100 1006.3
20260508183918 56 212 0.0 0.0 0.00 0.89 0.58 100 1006.3
20260508183412 56 212 0.0 0.0 0.00 0.89 0.58 100 1006.4
20260508182906 57 212 0.0 0.0 0.00 0.89 0.58 99 1006.2
20260508182801 57 212 0.0 0.0 0.00 0.89 0.58 99 1006.0
20260508181854 57 212 0.0 0.0 0.02 0.89 0.58 99 1006.1
20260508181355 58 212 0.0 0.0 0.02 0.89 0.58 100 1006.1
20260508180854 58 212 0.0 0.0 0.02 0.89 0.58 100 1006.2
20260508180353 58 212 0.0 0.0 0.02 0.89 0.58 100 1006.1
20260508175852 58 212 0.0 0.0 0.02 0.89 0.58 100 1006.1
20260508175352 58 212 0.0 1.0 0.02 0.89 0.58 100 1006.4
20260508174852 58 212 0.0 1.0 0.02 0.89 0.58 100 1006.3
20260508174749 58 212 0.0 0.0 0.02 0.89 0.58 99 1006.3
20260508173851 58 212 0.0 1.0 0.02 0.89 0.58 99 1006.1
20260508173353 58 212 0.0 1.0 0.02 0.89 0.58 99 1006.0
20260508172851 58 239 0.0 0.0 0.02 0.89 0.58 99 1005.9
20260508172353 58 239 0.0 0.0 0.01 0.88 0.57 99 1005.6
20260508171850 58 239 0.0 0.0 0.00 0.87 0.57 99 1005.8
20260508171346 58 239 0.0 0.0 0.00 0.87 0.57 99 1005.6
20260508171222 58 239 0.0 0.0 0.00 0.87 0.57 99 1005.6
20260508170344 58 239 0.0 0.0 0.01 0.87 0.57 99 1005.8
20260508165842 59 230 0.0 0.0 0.01 0.87 0.57 99 1005.7
20260508165342 59 230 0.0 0.0 0.02 0.87 0.57 99 1005.6
20260508164842 59 230 0.0 0.0 0.02 0.87 0.57 99 1005.5
20260508164341 59 230 0.0 1.0 0.02 0.87 0.57 99 1005.5
20260508163837 59 230 0.0 1.0 0.02 0.87 0.57 99 1005.6
20260508163337 59 235 0.0 1.0 0.02 0.87 0.57 99 1005.6
20260508163237 59 234 0.0 1.0 0.02 0.87 0.57 99 1005.8
20260508162337 59 238 0.0 0.0 0.04 0.87 0.57 98 1005.9
20260508161835 59 237 0.0 0.0 0.06 0.87 0.57 98 1005.9
20260508161724 60 238 0.0 1.0 0.13 0.87 0.57 98 1006.1
20260508160834 60 237 0.0 2.0 0.15 0.87 0.57 98 1006.2
20260508160336 60 296 0.0 2.0 0.17 0.87 0.56 98 1006.2
20260508155834 60 234 0.0 1.0 0.17 0.87 0.56 98 1006.2
20260508155732 60 234 0.0 5.0 0.19 0.86 0.55 97 1006.3
20260508155233 61 0 0.0 5.0 0.19 0.85 0.55 97 1006.5
20260508154337 61 240 0.0 0.0 0.21 0.85 0.54 98 1006.2
20260508153835 61 240 0.0 2.0 0.22 0.85 0.54 97 1006.1
20260508153336 62 242 1.0 5.0 0.24 0.85 0.54 97 1006.2
20260508152836 62 73 2.0 9.0 0.24 0.85 0.54 97 1006.4
20260508152336 62 265 5.0 20.0 0.23 0.83 0.53 96 1006.2
20260508152241 64 241 4.0 20.0 0.20 0.80 0.50 99 1006.2
20260508151332 64 137 3.0 8.0 0.15 0.75 0.45 99 1005.9
20260508150832 64 137 5.0 16.0 0.13 0.72 0.42 99 1005.8
20260508150536 64 217 5.0 16.0 0.11 0.70 0.40 99 1005.7
20260508145332 64 116 6.0 17.0 0.09 0.67 0.37 98 1006.1
20260508144829 64 182 6.0 17.0 0.09 0.66 0.35 98 1006.0
20260508144734 64 171 3.0 10.0 0.08 0.65 0.34 98 1006.3
20260508144240 64 154 4.0 14.0 0.10 0.64 0.32 97 1006.2
20260508143326 64 172 4.0 14.0 0.12 0.62 0.31 97 1006.3
20260508142827 64 236 4.0 14.0 0.14 0.62 0.30 98 1006.5
20260508142326 64 344 4.0 14.0 0.16 0.62 0.30 98 1006.3
20260508141826 64 185 4.0 10.0 0.16 0.61 0.29 98 1006.5
20260508141325 64 131 4.0 13.0 0.17 0.61 0.29 98 1006.4
20260508140832 63 199 5.0 13.0 0.18 0.61 0.29 98 1006.7
20260508140341 64 180 6.0 12.0 0.19 0.61 0.28 98 1006.7
20260508135825 63 208 6.0 18.0 0.20 0.60 0.28 98 1007.0
20260508135325 63 194 5.0 18.0 0.19 0.59 0.27 98 1006.9
20260508134818 63 120 5.0 17.0 0.20 0.58 0.26 98 1007.2
20260508134312 63 198 6.0 17.0 0.20 0.57 0.25 98 1007.2
20260508133805 63 175 4.0 13.0 0.18 0.54 0.23 98 1007.4
20260508133716 63 167 4.0 12.0 0.17 0.51 0.20 98 1007.1
20260508133201 63 149 5.0 13.0 0.13 0.47 0.16 98 1007.0
20260508132247 63 154 5.0 15.0 0.13 0.46 0.14 98 1007.2
20260508131746 63 182 4.0 11.0 0.13 0.46 0.13 98 1007.2
20260508131235 63 144 4.0 10.0 0.12 0.45 0.13 98 1007.2
20260508130729 63 124 4.0 10.0 0.10 0.43 0.11 98 1007.4
20260508130223 63 138 4.0 9.0 0.09 0.42 0.09 98 1007.6
20260508125717 63 151 5.0 12.0 0.08 0.40 0.08 97 1007.6
20260508125212 63 158 5.0 12.0 0.09 0.40 0.08 97 1007.9
20260508124705 63 143 4.0 11.0 0.07 0.39 0.06 97 1008.1
20260508124202 63 124 3.0 11.0 0.06 0.37 0.05 97 1008.2
20260508123704 63 206 3.0 9.0 0.06 0.35 0.03 97 1008.4
20260508123348 63 151 3.0 9.0 0.06 0.35 0.02 97 1008.3
20260508122202 63 174 3.0 8.0 0.06 0.34 0.02 97 1008.6
20260508122059 63 107 4.0 10.0 0.05 0.33 0.02 97 1008.5
20260508121211 63 199 3.0 10.0 0.05 0.33 0.01 97 1008.5
20260508120709 63 182 3.0 9.0 0.04 0.32 0.00 97 1008.7
20260508120204 63 184 4.0 9.0 0.05 0.32 0.00 97 1008.9
20260508115702 63 105 5.0 10.0 0.05 0.32 0.32 96 1009.1
20260508115202 63 151 4.0 10.0 0.04 0.31 0.32 96 1009.1
20260508114703 63 151 3.0 9.0 0.04 0.31 0.31 96 1009.2
20260508114202 63 165 4.0 9.0 0.03 0.31 0.31 96 1009.4
20260508113702 64 75 4.0 12.0 0.02 0.29 0.29 95 1009.4
20260508113158 64 148 4.0 12.0 0.01 0.28 0.28 95 1009.6
20260508112703 64 163 4.0 12.0 0.01 0.28 0.28 95 1009.7
20260508112157 64 114 4.0 11.0 0.01 0.28 0.28 95 1009.6
20260508111650 64 100 5.0 10.0 0.01 0.28 0.28 95 1009.6
20260508111535 64 37 5.0 12.0 0.01 0.28 0.28 94 1009.8
20260508110637 64 163 4.0 12.0 0.01 0.28 0.28 95 1010.1
20260508110132 64 185 4.0 10.0 0.01 0.28 0.28 95 1010.0
20260508105628 64 172 4.0 10.0 0.01 0.28 0.28 95 1010.1
20260508105119 63 213 4.0 13.0 0.02 0.28 0.28 96 1010.2
20260508104613 63 158 4.0 13.0 0.02 0.28 0.28 96 1010.2
20260508104107 63 178 3.0 11.0 0.02 0.28 0.28 96 1010.1
20260508103601 63 184 3.0 11.0 0.04 0.28 0.28 96 1010.2
20260508103057 63 151 3.0 10.0 0.07 0.28 0.28 97 1010.3
20260508102549 63 210 3.0 13.0 0.08 0.28 0.28 97 1010.6
20260508102043 63 148 3.0 13.0 0.10 0.28 0.28 97 1010.5
20260508101946 63 167 3.0 9.0 0.11 0.28 0.28 97 1010.7
20260508101032 63 127 4.0 13.0 0.11 0.28 0.28 97 1010.9
20260508100941 63 99 3.0 13.0 0.13 0.28 0.28 97 1010.9
20260508100019 63 190 2.0 7.0 0.12 0.27 0.27 98 1010.9
20260508095513 62 198 2.0 6.0 0.13 0.27 0.27 98 1011.0
20260508095007 62 168 2.0 6.0 0.12 0.26 0.26 98 1011.1
20260508094502 62 136 3.0 9.0 0.12 0.26 0.26 98 1011.0
20260508093956 62 151 4.0 9.0 0.11 0.25 0.25 98 1011.1
20260508093450 62 75 4.0 9.0 0.09 0.23 0.23 98 1011.1
20260508092943 62 101 4.0 8.0 0.08 0.20 0.20 98 1011.1
20260508092437 62 184 3.0 8.0 0.06 0.19 0.20 97 1011.3
20260508091931 62 143 3.0 10.0 0.06 0.17 0.17 97 1011.2
20260508091842 62 176 3.0 10.0 0.06 0.17 0.17 97 1011.2
20260508090920 62 150 4.0 9.0 0.06 0.16 0.17 96 1011.3
20260508090555 62 172 4.0 9.0 0.06 0.15 0.15 96 1011.4
20260508085820 62 130 3.0 8.0 0.05 0.14 0.14 96 1011.3
20260508084857 63 50 3.0 7.0 0.05 0.14 0.14 96 1011.4
20260508084350 63 153 4.0 13.0 0.05 0.14 0.14 96 1011.4
20260508083844 63 146 4.0 13.0 0.05 0.13 0.14 97 1011.5
20260508083338 63 75 3.0 11.0 0.06 0.13 0.13 97 1011.6
20260508083302 63 139 4.0 12.0 0.06 0.13 0.13 97 1011.5
20260508082327 63 101 4.0 12.0 0.06 0.12 0.12 97 1011.5
20260508082234 63 210 4.0 11.0 0.05 0.11 0.11 97 1011.5
20260508081313 63 140 4.0 10.0 0.04 0.10 0.10 97 1011.8
20260508080807 63 216 3.0 10.0 0.05 0.10 0.10 97 1011.6
20260508080301 62 118 3.0 8.0 0.04 0.09 0.09 97 1011.9
20260508075758 62 267 3.0 8.0 0.04 0.09 0.09 97 1012.0
20260508075254 62 60 3.0 8.0 0.05 0.09 0.09 97 1012.2
20260508075216 62 199 4.0 12.0 0.05 0.09 0.09 96 1012.3
20260508074246 62 71 4.0 12.0 0.04 0.09 0.09 96 1012.3
20260508073745 62 129 3.0 11.0 0.04 0.09 0.09 96 1012.5
20260508073643 62 117 2.0 9.0 0.03 0.08 0.08 96 1012.5
20260508072741 63 169 2.0 9.0 0.02 0.07 0.07 96 1012.7
20260508072242 63 165 3.0 9.0 0.02 0.06 0.06 96 1012.8
20260508072155 63 219 3.0 7.0 0.02 0.06 0.06 96 1012.9
20260508071240 63 90 3.0 8.0 0.02 0.06 0.06 95 1012.7
20260508070742 63 336 3.0 11.0 0.01 0.06 0.06 95 1012.6
20260508070237 63 157 3.0 11.0 0.01 0.06 0.06 95 1012.5
20260508065738 63 155 3.0 8.0 0.02 0.06 0.06 94 1012.6
20260508065643 63 149 4.0 10.0 0.01 0.05 0.05 93 1012.7
20260508064738 63 72 4.0 10.0 0.01 0.05 0.05 93 1012.8
20260508064236 64 158 4.0 14.0 0.01 0.05 0.05 92 1012.8
20260508063740 64 177 4.0 14.0 0.01 0.05 0.05 90 1013.0
20260508063651 64 123 4.0 14.0 0.01 0.05 0.05 90 1013.1
20260508062737 64 168 4.0 14.0 0.01 0.05 0.05 89 1013.1
20260508062237 64 198 4.0 12.0 0.01 0.05 0.05 90 1013.2
20260508062146 64 189 3.0 12.0 0.01 0.05 0.05 90 1013.2
20260508061239 64 147 2.0 11.0 0.01 0.05 0.05 91 1013.1
20260508060737 64 127 3.0 11.0 0.01 0.05 0.05 91 1013.2
20260508060633 64 176 2.0 9.0 0.01 0.05 0.05 91 1013.2
20260508055736 64 158 1.0 5.0 0.00 0.04 0.04 91 1013.3
20260508055239 64 196 2.0 5.0 0.00 0.04 0.04 91 1013.3
20260508054736 64 160 3.0 7.0 0.00 0.04 0.04 91 1013.2
20260508054237 64 333 3.0 8.0 0.00 0.04 0.04 91 1013.1
20260508053735 63 187 2.0 8.0 0.00 0.04 0.04 92 1013.4
20260508053234 63 161 3.0 8.0 0.00 0.04 0.04 93 1013.5
20260508052734 63 163 3.0 8.0 0.00 0.04 0.04 93 1013.5
20260508052234 63 151 3.0 7.0 0.00 0.04 0.04 93 1013.6
20260508051736 63 166 3.0 9.0 0.00 0.04 0.04 93 1013.5
20260508051237 63 145 3.0 9.0 0.00 0.04 0.04 93 1013.5
20260508050737 63 203 3.0 9.0 0.00 0.04 0.04 93 1013.5
20260508050235 62 176 2.0 7.0 0.00 0.04 0.04 94 1013.8
20260508045735 62 163 2.0 6.0 0.02 0.04 0.04 94 1013.8
20260508045228 62 161 2.0 6.0 0.02 0.04 0.04 94 1013.8
20260508045134 62 121 1.0 5.0 0.02 0.04 0.04 94 1013.9
20260508044216 63 52 2.0 6.0 0.02 0.04 0.04 94 1014.0
20260508043709 63 141 2.0 7.0 0.02 0.04 0.04 93 1013.9
20260508043606 63 116 2.0 7.0 0.02 0.04 0.04 93 1013.9
20260508042707 63 140 2.0 6.0 0.02 0.04 0.04 93 1013.9
20260508042552 63 166 1.0 6.0 0.02 0.04 0.04 93 1014.0
20260508041645 63 172 1.0 9.0 0.02 0.04 0.04 94 1014.0
20260508041139 63 184 1.0 9.0 0.02 0.04 0.04 93 1014.0
20260508040633 63 177 2.0 10.0 0.02 0.04 0.04 92 1014.2
20260508040136 64 170 2.0 10.0 0.01 0.02 0.03 90 1014.8
20260508035622 64 165 2.0 10.0 0.00 0.02 0.02 88 1014.8
20260508035516 65 152 4.0 10.0 0.00 0.02 0.02 87 1014.8
20260508034609 65 178 3.0 13.0 0.00 0.02 0.02 85 1014.8
20260508034510 65 173 3.0 13.0 0.00 0.02 0.02 85 1014.7
20260508033557 65 195 2.0 12.0 0.00 0.02 0.02 86 1014.7
20260508033052 65 206 2.0 9.0 0.00 0.02 0.02 87 1014.7
20260508032545 65 137 2.0 9.0 0.00 0.02 0.02 87 1014.8
20260508032039 65 130 2.0 9.0 0.00 0.02 0.02 87 1014.8
20260508031533 65 126 3.0 13.0 0.00 0.02 0.02 88 1014.6
20260508031214 65 154 3.0 13.0 0.00 0.02 0.02 87 1014.7
20260508030014 65 212 2.0 12.0 0.00 0.02 0.02 86 1014.9
20260508025509 66 110 3.0 12.0 0.00 0.02 0.02 86 1015.0
20260508025003 66 211 4.0 15.0 0.00 0.02 0.02 86 1015.0
20260508024457 66 127 4.0 15.0 0.00 0.02 0.02 85 1014.8
20260508024400 66 127 3.0 8.0 0.00 0.02 0.02 85 1015.0
20260508023445 66 197 4.0 10.0 0.00 0.02 0.02 85 1015.2
20260508022947 66 169 3.0 10.0 0.00 0.02 0.02 85 1015.4
20260508022442 66 170 3.0 10.0 0.00 0.02 0.02 86 1015.5
20260508021942 66 121 3.0 10.0 0.00 0.02 0.02 87 1015.9
20260508021844 66 193 3.0 9.0 0.00 0.02 0.02 89 1015.9
20260508020942 66 158 3.0 9.0 0.00 0.02 0.02 89 1015.9
20260508020440 66 194 3.0 7.0 0.00 0.02 0.02 89 1015.7
20260508015948 66 202 3.0 7.0 0.00 0.02 0.02 89 1015.7
20260508015834 66 170 3.0 8.0 0.00 0.02 0.02 89 1015.9
20260508014939 66 154 3.0 8.0 0.00 0.02 0.02 88 1016.0
20260508014843 66 130 3.0 8.0 0.00 0.02 0.02 88 1015.9
20260508013936 66 170 2.0 6.0 0.00 0.02 0.02 87 1015.9
20260508013435 65 166 2.0 7.0 0.00 0.02 0.02 88 1016.0
20260508012937 65 185 3.0 7.0 0.00 0.02 0.02 88 1016.1
20260508012436 65 199 3.0 9.0 0.00 0.02 0.02 88 1016.1
20260508011933 65 154 2.0 9.0 0.00 0.02 0.02 88 1016.1
20260508011835 65 189 3.0 8.0 0.00 0.02 0.02 88 1016.3
20260508010931 65 101 3.0 8.0 0.00 0.02 0.02 88 1016.4
20260508010432 65 119 3.0 9.0 0.00 0.02 0.02 89 1016.7
20260508005932 65 183 3.0 9.0 0.00 0.02 0.02 89 1016.5
20260508005425 65 170 2.0 7.0 0.00 0.02 0.02 89 1016.8
20260508004920 65 191 2.0 8.0 0.00 0.02 0.02 89 1016.9
20260508004412 65 144 3.0 9.0 0.00 0.02 0.02 89 1017.0
20260508003907 65 80 2.0 9.0 0.00 0.02 0.02 89 1017.0
20260508003402 65 154 3.0 9.0 0.00 0.02 0.02 89 1016.9
20260508002905 65 152 3.0 9.0 0.00 0.02 0.02 90 1017.0
20260508002359 65 174 3.0 9.0 0.00 0.02 0.02 91 1017.2
20260508001857 64 158 3.0 8.0 0.00 0.02 0.02 92 1017.5
20260508001806 64 142 3.0 8.0 0.00 0.02 0.02 92 1017.8
20260508000858 64 169 3.0 7.0 0.00 0.02 0.02 92 1017.8
20260508000357 64 167 2.0 7.0 0.00 0.02 0.02 91 1018.0
20260507235855 64 227 3.0 10.0 0.00 0.02 0.02 91 1018.0
20260507235353 64 175 3.0 10.0 0.00 0.02 0.02 90 1017.9
20260507235252 64 201 2.0 8.0 0.00 0.02 0.02 91 1018.0
20260507234353 64 136 3.0 8.0 0.00 0.02 0.02 92 1018.0
20260507234253 64 132 3.0 9.0 0.00 0.02 0.02 92 1018.5
20260507233352 63 148 3.0 9.0 0.00 0.02 0.02 92 1018.5
20260507233311 63 178 4.0 11.0 0.00 0.02 0.02 91 1018.6
20260507232353 64 154 3.0 11.0 0.00 0.02 0.02 88 1018.6
20260507231857 65 9 3.0 9.0 0.00 0.02 0.02 86 1018.4
20260507231357 65 150 4.0 11.0 0.00 0.02 0.02 86 1018.2
20260507230856 65 9 3.0 11.0 0.00 0.02 0.02 85 1018.2
20260507230804 65 120 2.0 7.0 0.00 0.02 0.02 85 1018.1
20260507225855 65 158 3.0 7.0 0.00 0.02 0.02 86 1018.3
20260507225355 65 158 3.0 10.0 0.00 0.02 0.02 87 1018.3
20260507224856 65 197 4.0 11.0 0.00 0.02 0.02 88 1018.4
20260507224355 65 139 4.0 11.0 0.00 0.02 0.02 88 1018.4
20260507223853 65 149 4.0 9.0 0.00 0.02 0.02 89 1018.4
20260507223354 65 338 3.0 8.0 0.00 0.02 0.02 90 1018.4
20260507222853 65 139 3.0 9.0 0.00 0.02 0.02 89 1018.3
20260507222351 65 127 3.0 9.0 0.00 0.02 0.02 90 1018.5
20260507221847 65 154 3.0 7.0 0.00 0.02 0.02 89 1018.5
20260507221347 65 142 2.0 7.0 0.00 0.02 0.02 89 1018.7
20260507220845 65 191 2.0 7.0 0.00 0.02 0.02 89 1018.7
20260507220759 65 185 3.0 9.0 0.00 0.02 0.02 89 1018.8